Location: Unspecified
(0.0000°N, 0.0000°E)
Time: 20:00:46
(UTC+00:00)

Vanguard 2 - Visible Passes

Search period start: 20 May 2025 00:00
Search period end: 30 May 2025 00:00
Orbit: 553 x 2901 km, 32.9° (Epoch: 20 May)

Date Brightness Start Highest point End Pass type
(mag) Time Alt. Az. Time Alt. Az. Time Alt. Az.
20 May 11.6 00:42:58 10° NNW 00:52:20 20° NNE 01:03:12 10° ENE visible
20 May 10.9 02:50:45 10° NW 03:06:24 48° NE 03:22:25 10° ESE visible
20 May 10.2 05:01:29 10° WNW 05:19:22 79° SW 05:34:02 10° SE visible
20 May 10.0 18:22:20 10° WNW 18:25:31 18° NNW 18:29:29 10° NNE visible
21 May 11.4 00:55:00 10° NNW 01:05:42 24° NNE 01:18:20 10° ENE visible
21 May 10.6 03:03:01 10° NW 03:19:14 59° NE 03:35:44 10° ESE visible
21 May 10.3 05:14:25 10° WNW 05:32:01 65° SW 05:46:27 10° SE visible
21 May 10.4 18:36:52 10° NW 18:38:32 11° NNW 18:40:22 10° N visible
22 May 11.2 01:07:01 10° NNW 01:18:51 30° NNE 01:32:59 10° E visible
22 May 10.4 03:15:22 10° NW 03:31:57 71° NE 03:48:46 10° ESE visible
22 May 10.4 05:27:36 10° WNW 05:44:39 54° SW 05:58:44 10° SE visible
22 May 11.5 23:14:16 10° N 23:18:21 12° NNE 23:22:56 10° NE visible
23 May 11.0 01:19:04 10° NNW 01:31:48 36° NE 01:47:11 10° E visible
23 May 10.2 03:27:52 10° NW 03:44:37 84° NE 04:01:34 10° ESE visible
23 May 11.4 23:25:27 10° N 23:36:23 13° NE 23:39:21 10° ENE visible
24 May 10.7 01:37:52 32° N 01:44:36 45° NE 02:00:59 10° ESE visible
24 May 10.2 03:40:29 10° WNW 03:57:17 82° SW 04:14:12 10° SE visible
24 May 11.4 23:37:00 10° N 23:52:36 13° ENE 23:54:58 10° ENE visible
25 May 10.5 01:53:52 49° N 01:57:17 55° NE 02:14:25 10° ESE visible
25 May 10.2 03:55:08 15° WNW 04:09:57 69° SW 04:26:39 10° SE visible
26 May 11.4 00:07:25 14° ENE 00:07:25 14° ENE 00:09:58 10° E visible
26 May 10.2 02:08:37 66° NNE 02:09:55 67° NE 02:27:34 10° ESE visible
26 May 10.3 04:09:49 20° WNW 04:22:41 57° SW 04:38:58 10° SE visible
27 May 11.6 00:21:36 16° E 00:21:36 16° E 00:24:26 10° E visible
27 May 10.0 02:22:45 81° NE 02:22:45 81° NE 02:40:27 10° ESE visible
27 May 10.5 04:23:55 22° W 04:35:30 47° SSW 04:51:13 10° SE visible
28 May 11.6 00:35:18 17° E 00:35:18 17° E 00:38:26 10° E visible
28 May 10.0 02:36:26 80° SSE 02:36:26 80° SSE 02:53:08 10° SE visible
28 May 10.6 04:37:33 20° W 04:48:28 39° SSW 05:03:23 10° SSE visible
29 May 11.6 00:48:39 18° ESE 00:48:39 18° ESE 00:52:01 10° ESE visible
29 May 10.1 02:49:45 67° S 02:49:45 67° S 03:05:37 10° SE visible
29 May 10.8 04:50:51 18° WSW 05:01:35 32° SSW 05:15:32 10° SSE visible
